Date,TemperatureHighF,TemperatureAvgF,TemperatureLowF,DewpointHighF,DewpointAvgF,DewpointLowF,HumidityHigh,HumidityAvg,HumidityLow,PressureMaxIn,PressureMinIn,WindSpeedMaxMPH,WindSpeedAvgMPH,GustSpeedMaxMPH,PrecipitationSumIn
2013-10-1,63,57,51,52,50,45,92,77,63,30.03,29.96,16,4,22,0.00
2013-10-2,63,56,50,50,47,42,87,71,54,30.07,29.96,18,4,22,0.00
2013-10-3,69,59,50,48,42,35,69,56,33,30.12,30.01,14,5,22,0.00
2013-10-4,71,60,51,47,39,28,65,47,22,30.09,30.03,11,3,15,0.00
2013-10-5,76,61,46,45,36,26,70,44,16,30.18,30.08,15,6,17,0.00
2013-10-6,78,60,46,49,40,36,69,50,26,30.11,29.99,13,6,19,0.00
2013-10-7,64,55,45,51,44,38,85,67,44,29.99,29.90,13,5,17,0.00
2013-10-8,64,55,49,49,47,44,85,75,55,29.91,29.76,15,3,21,0.00
2013-10-9,60,54,48,47,45,43,85,74,61,29.77,29.65,12,4,20,0.00
2013-10-10,58,51,46,52,46,42,94,84,71,30.00,29.76,12,3,14,0.00
2013-10-11,59,50,44,52,47,43,97,90,77,30.11,29.99,8,2,10,0.00
2013-10-12,61,51,43,50,46,41,95,84,61,30.01,29.92,12,4,20,0.01
2013-10-13,62,52,45,52,48,43,95,86,67,30.06,29.94,9,3,11,0.00
2013-10-14,67,53,44,50,44,40,89,73,43,30.12,30.03,11,5,15,0.00
2013-10-15,73,55,44,50,42,36,81,63,26,30.04,29.96,13,5,16,0.00
2013-10-16,72,56,44,43,39,34,76,56,25,30.08,29.98,12,5,15,0.00
2013-10-17,62,52,44,53,43,36,93,71,42,30.09,29.97,11,4,14,0.00
2013-10-18,54,48,42,50,46,39,97,91,82,30.07,29.99,8,2,8,0.00
2013-10-19,56,47,40,52,46,39,99,94,84,30.10,30.03,8,1,9,0.00
2013-10-20,57,48,41,51,46,40,99,94,81,30.04,29.93,5,2,8,0.01
2013-10-21,54,48,44,52,47,43,99,96,90,30.02,29.94,8,2,10,0.01
2013-10-22,55,48,41,52,47,41,99,96,87,30.05,29.95,7,1,10,0.01
2013-10-23,54,48,40,51,47,40,99,96,88,29.98,29.93,6,1,11,0.00
2013-10-24,60,52,47,51,49,45,98,88,73,30.11,29.96,6,2,10,0.01
2013-10-25,60,51,44,53,48,43,96,89,75,30.19,30.09,10,4,12,0.00
2013-10-26,55,48,43,52,47,42,98,95,86,30.16,30.04,6,2,9,0.00
2013-10-27,56,50,42,51,47,42,98,90,79,30.04,29.69,18,5,23,0.01
2013-10-28,57,52,46,50,47,43,93,83,72,29.82,29.68,13,4,19,0.00
2013-10-29,57,49,40,52,46,38,96,89,77,30.06,29.82,9,4,12,0.01
2013-10-30,59,49,41,51,46,40,97,89,73,30.16,30.06,9,3,12,0.01
2013-10-31,62,50,41,52,46,39,94,85,60,30.19,30.08,10,4,11,0.00